{"data":{"norad_id":69846,"intl_designator":"2026-154AD","name":"STARLINK-37603","alt_names":[],"object_type":"PAYLOAD","status":"ACTIVE","operator":null,"country":"US","launch_date":"2026-07-05","launch_site_code":"AFETR","launch_vehicle":null,"mission":null,"orbit_class":"UNKNOWN","rcs_meters":null,"size_class":null,"mass_kg":null,"dimensions":null,"purposes":["comms"],"wikipedia_slug":null,"has_3d_model":false,"image_url":null,"decayed_at":null,"tle_current":{"epoch":"2026-09-20T04:23:18.438720Z","epoch_age_seconds":45187,"freshness":"FRESH","line1":"1 69846U 26154AD  26263.18285230 -.00003099  00000+0 -80678-4 0  9994","line2":"2 69846  53.1621 332.8745 0001018  76.0698 284.0418 15.34380705 13198","mean_motion":15.34380705,"eccentricity":0.0001018,"inclination_deg":53.1621,"raan_deg":332.8745,"arg_perigee_deg":76.0698,"mean_anomaly_deg":284.0418,"bstar":-8.0678e-5,"rev_number":1319,"period_min":93.84893822684,"perigee_km":462.06418623969,"apogee_km":463.45699298894,"semimajor_km":6840.8975896143,"source":"CELESTRAK","updated_at":"2026-09-20T09:00:44.298279Z"}}}